Location: Palomar Mountain Lodge
(33.3110°N, 116.8495°W)
Time: 18:35:48
(UTC-07:00)

Cosmos 1953 - Pass Details

Date: 14 June 2018
Orbit: 539 x 560 km, 82.5° (Epoch: 17 June)

Event Time Altitude Azimuth Distance (km) Brightness Sun altitude
Rises 20:56:30 0° 7° (N) 2,697 6.3 -11.0°
Reaches altitude 10° 20:58:54 10° 19° (NNE) 1,803 5.2 -11.4°
Maximum altitude 21:02:20 28° 79° (E) 1,041 3.4 -12.0°
Enters shadow 21:04:16 19° 123° (ESE) 1,331 3.6 -12.3°
